DW0774 Weather Reports


Display with metric or nautical units.
time (UTC)temp
F
wind
direction
speed
MPH
gust
MPH
rain 1hr
in
rain 24hr
in
rain mn
in
humidity
%
barometer
mb
20260906220007 78 124 6.0 16.0 0.00 0.00 0.00 33 1025.7
20260906214503 79 135 9.0 19.0 0.00 0.00 0.00 32 1025.7
20260906213016 80 163 10.0 19.0 0.00 0.00 0.00 31 1025.8
20260906211519 79 145 10.0 20.0 0.00 0.00 0.00 32 1025.9
20260906210009 80 133 12.0 20.0 0.00 0.00 0.00 30 1026.0
20260906204512 80 117 11.0 19.0 0.00 0.00 0.00 31 1026.0
20260906203006 78 192 9.0 18.0 0.00 0.00 0.00 32 1026.1
20260906201502 80 162 11.0 21.0 0.00 0.00 0.00 31 1026.2
20260906200003 81 149 9.0 18.0 0.00 0.00 0.00 31 1026.3
20260906194503 80 168 11.0 19.0 0.00 0.00 0.00 33 1026.6
20260906193003 80 164 12.0 21.0 0.00 0.00 0.00 32 1026.8
20260906191505 80 130 11.0 21.0 0.00 0.00 0.00 32 1026.8
20260906190002 81 168 9.0 21.0 0.00 0.00 0.00 31 1027.1
20260906184504 81 143 8.0 17.0 0.00 0.00 0.00 32 1027.2
20260906183010 80 170 8.0 18.0 0.00 0.00 0.00 34 1027.4
20260906181502 80 185 5.0 15.0 0.00 0.00 0.00 34 1027.6
20260906180007 79 131 8.0 22.0 0.00 0.00 0.00 33 1027.8
20260906174503 78 140 6.0 18.0 0.00 0.00 0.00 34 1028.1
20260906173003 75 175 4.0 14.0 0.00 0.00 0.00 35 1028.1
20260906171505 77 110 7.0 15.0 0.00 0.00 0.00 32 1028.2
20260906170015 77 103 5.0 11.0 0.00 0.00 0.00 32 1028.4
20260906164506 76 174 3.0 11.0 0.00 0.00 0.00 33 1028.5
20260906163003 74 138 2.0 8.0 0.00 0.00 0.00 34 1028.3
20260906161504 72 15 3.0 11.0 0.00 0.00 0.00 34 1028.4
20260906160006 71 20 3.0 10.0 0.00 0.00 0.00 36 1028.4
20260906154515 70 346 4.0 9.0 0.00 0.00 0.00 39 1028.3
20260906153003 68 15 3.0 8.0 0.00 0.00 0.00 39 1028.6
20260906151510 67 341 3.0 6.0 0.00 0.00 0.00 41 1028.8
20260906150009 66 360 3.0 5.0 0.00 0.00 0.00 43 1028.8
20260906144506 64 26 1.0 3.0 0.00 0.00 0.00 45 1028.8
20260906143005 63 300 2.0 5.0 0.00 0.00 0.00 47 1028.7
20260906141524 62 355 1.0 4.0 0.00 0.00 0.00 48 1028.6
20260906140011 61 286 0.0 0.0 0.00 0.00 0.00 48 1028.6
20260906134535 61 286 0.0 0.0 0.00 0.00 0.00 47 1028.5
20260906133010 60 285 0.0 0.0 0.00 0.00 0.00 48 1028.4
20260906131509 59 286 0.0 3.0 0.00 0.00 0.00 50 1028.1
20260906130008 59 311 2.0 5.0 0.00 0.00 0.00 50 1028.0
20260906124507 59 10 2.0 4.0 0.00 0.00 0.00 51 1027.9
20260906123027 59 344 0.0 5.0 0.00 0.00 0.00 51 1027.8
20260906121522 59 349 2.0 5.0 0.00 0.00 0.00 51 1027.8
20260906120009 59 352 4.0 7.0 0.00 0.00 0.00 51 1027.9
20260906114511 59 351 3.0 8.0 0.00 0.00 0.00 52 1027.9
20260906113008 59 304 3.0 6.0 0.00 0.00 0.00 52 1027.9
20260906111515 59 307 1.0 4.0 0.00 0.00 0.00 52 1027.9
20260906110032 59 344 1.0 3.0 0.00 0.00 0.00 52 1027.9
20260906104532 59 19 0.0 5.0 0.00 0.00 0.00 53 1027.9
20260906103028 58 19 3.0 5.0 0.00 0.00 0.00 53 1027.9
20260906101504 58 331 3.0 5.0 0.00 0.00 0.00 54 1027.8
20260906100012 58 296 1.0 8.0 0.00 0.00 0.00 54 1028.0
20260906094504 58 340 4.0 8.0 0.00 0.00 0.00 55 1028.0
20260906093006 59 355 3.0 5.0 0.00 0.00 0.00 54 1028.1
20260906091504 59 351 1.0 3.0 0.00 0.00 0.00 53 1027.9
20260906090006 59 18 1.0 7.0 0.00 0.00 0.00 52 1027.9
20260906084510 60 269 1.0 6.0 0.00 0.00 0.00 52 1027.9
20260906083012 60 138 0.0 0.0 0.00 0.00 0.00 51 1028.0
20260906081504 60 138 0.0 3.0 0.00 0.00 0.00 51 1028.1
20260906080008 60 138 2.0 4.0 0.00 0.00 0.00 51 1028.3
20260906074504 60 355 0.0 3.0 0.00 0.00 0.00 52 1028.3
20260906073007 60 355 1.0 5.0 0.00 0.00 0.00 52 1028.3
20260906071525 60 312 3.0 10.0 0.00 0.00 0.00 52 1028.2
20260906070004 61 65 0.0 3.0 0.00 0.00 0.00 50 1028.1
20260906064514 62 150 2.0 4.0 0.00 0.00 0.00 48 1028.4
20260906063010 63 94 1.0 6.0 0.00 0.00 0.00 47 1028.7
20260906061508 64 136 2.0 6.0 0.00 0.00 0.00 46 1028.6
20260906060010 63 128 4.0 8.0 0.00 0.00 0.00 46 1028.4
20260906054530 63 146 3.0 6.0 0.00 0.00 0.00 47 1028.7
20260906053011 63 109 2.0 4.0 0.00 0.00 0.00 47 1028.6
20260906051518 64 126 1.0 8.0 0.00 0.00 0.00 46 1028.6
20260906050003 64 171 5.0 11.0 0.00 0.00 0.00 46 1028.5
20260906044512 63 171 7.0 11.0 0.00 0.00 0.00 50 1028.5
20260906043007 62 352 1.0 9.0 0.00 0.00 0.00 51 1028.2
20260906041508 62 293 4.0 9.0 0.00 0.00 0.00 50 1028.2
20260906040020 62 291 2.0 8.0 0.00 0.00 0.00 52 1028.2
20260906034520 62 286 5.0 9.0 0.00 0.00 0.00 51 1028.4
20260906033013 62 282 5.0 8.0 0.00 0.00 0.00 51 1028.4
20260906031513 62 274 2.0 8.0 0.00 0.00 0.00 51 1028.3
20260906030011 63 284 4.0 8.0 0.00 0.00 0.00 50 1028.2
20260906024518 64 277 5.0 9.0 0.00 0.00 0.00 49 1028.1
20260906023030 64 292 4.0 9.0 0.00 0.00 0.00 48 1028.0
20260906021504 64 242 3.0 6.0 0.00 0.00 0.00 49 1028.1
20260906020004 64 298 3.0 10.0 0.00 0.00 0.00 48 1027.8
20260906014503 64 276 4.0 9.0 0.00 0.00 0.00 48 1027.9
20260906013021 65 234 4.0 11.0 0.00 0.00 0.00 47 1027.9
20260906011502 66 265 5.0 9.0 0.00 0.00 0.00 45 1027.9
20260906010007 67 34 1.0 9.0 0.00 0.00 0.00 44 1027.8
20260906004504 68 154 9.0 18.0 0.00 0.00 0.00 41 1028.3
20260906003003 69 154 4.0 8.0 0.00 0.00 0.00 42 1028.7
20260906001502 69 12 5.0 9.0 0.00 0.00 0.00 41 1028.4
20260906000004 70 338 4.0 11.0 0.00 0.00 0.00 40 1028.3
20260905234508 70 360 9.0 15.0 0.00 0.00 0.00 39 1028.2
20260905233015 70 360 13.0 16.0 0.00 0.00 0.00 39 1028.1
20260905231503 69 108 9.0 14.0 0.00 0.00 0.00 38 1028.0
20260905230004 70 140 8.0 16.0 0.00 0.00 0.00 40 1027.9
20260905224504 72 145 10.0 25.0 0.00 0.00 0.00 36 1027.6
20260905223006 74 139 5.0 10.0 0.00 0.00 0.00 31 1027.4
20260905221529 75 159 1.0 8.0 0.00 0.00 0.00 30 1027.4